This demonstration page uses our WeatherBlox Daily Observations layout. Learn more.

Left ArrowRight Arrow

39.01783, -85.05884

Hourly Observations for June 20, 2018

Temp ( °F °C ) Dew Point ( °F °C ) Humidity (%) Winds ( mph kmh ) Pressure ( in mb ) Visibility ( mi km ) Precip ( " mm )
12:52 am 00:52 Mostly Clear 75 23.9 68 20 79 79 SE 5 7 29.90 1013 10 16 N/A
1:52 am 01:52 Partly Cloudy 73 22.8 68 20 84 84 SSW 6 9 29.89 1012 10 16 N/A
2:52 am 02:52 Mostly Clear 73 22.8 68 20 84 84 N N/A 29.86 1011 10 16 N/A
3:52 am 03:52 Clear 72 22.2 68 20 87 87 SSW 6 9 29.85 1011 10 16 N/A
4:52 am 04:52 Mostly Clear 73 22.8 68 20 84 84 WSW 3 6 29.85 1011 10 16 N/A
5:52 am 05:52 Mostly Clear 72 22.2 68 20 87 87 N N/A 29.87 1011 10 16 N/A
6:52 am 06:52 Partly Cloudy 72 22.2 69 20.6 91 91 N N/A 29.88 1012 10 16 N/A
7:52 am 07:52 Partly Cloudy 75 23.9 70 21.1 84 84 SW 3 6 29.88 1012 10 16 N/A
8:52 am 08:52 Partly Cloudy 78 25.6 69 20.6 74 74 WSW 9 15 29.88 1012 10 16 N/A
9:52 am 09:52 Partly Cloudy 79 26.1 69 20.6 72 72 WSW 8 13 29.88 1012 10 16 N/A
10:52 am 10:52 Partly Cloudy 81 27.2 69 20.6 67 67 WSW 9 15 29.87 1012 10 16 N/A
11:52 am 11:52 Partly Cloudy 85 29.4 68 20 57 57 SW 12 19 29.86 1011 10 16 N/A
12:52 pm 12:52 Partly Cloudy 87 30.6 68 20 53 53 W 12 19 29.85 1011 10 16 N/A
1:52 pm 13:52 Mostly Cloudy 86 30 67 19.4 53 53 WNW 14 22 29.83 1010 10 16 N/A
2:52 pm 14:52 Partly Cloudy 89 31.7 67 19.4 48 48 WNW 16 26 29.82 1010 10 16 N/A
3:52 pm 15:52 Partly Cloudy 89 31.7 66 18.9 47 47 W 15 24 29.79 1009 10 16 N/A
4:52 pm 16:52 Mostly Cloudy 88 31.1 68 20 52 52 W 16 26 29.80 1009 10 16 N/A
5:52 pm 17:52 Mostly Cloudy 87 30.6 68 20 53 53 W 12 19 29.79 1009 10 16 N/A
6:52 pm 18:52 Mostly Cloudy 85 29.4 68 20 57 57 W 14 22 29.78 1008 10 16 N/A
6:56 pm 18:56 Mostly Cloudy with Thunderstorms 85 29.4 68 20 57 57 WNW 12 19 29.74 1007 10 16 N/A
7:15 pm 19:15 Mostly Cloudy 84 28.9 67 19.4 57 57 WNW 14 22 29.74 1007 10 16 N/A
7:52 pm 19:52 Mostly Cloudy 83 28.3 66 18.9 57 57 WNW 10 17 29.78 1008 10 16 N/A
8:52 pm 20:52 Mostly Cloudy 80 26.7 67 19.4 64 64 W 6 9 29.78 1009 10 16 N/A
9:52 pm 21:52 Mostly Cloudy 79 26.1 68 20 69 69 WSW 5 7 29.81 1009 10 16 N/A
10:52 pm 22:52 Mostly Cloudy 78 25.6 70 21.1 76 76 WSW 6 9 29.83 1010 10 16 N/A
11:52 pm 23:52 Partly Cloudy 76 24.4 70 21.1 82 82 SW 3 6 29.82 1010 10 16 N/A

Powered by AerisWeather